Weather History for CWSK - February, 2014

Change the Weather History Date:

Friday, February 28, 2014

  Actual Average Record
Temperature  
Mean Temperature 44 °F -  
Max Temperature 55 °F - - ()
Min Temperature 33 °F - - ()
Degree Days  
Heating Degree Days 21    
Moisture  
Dew Point 19 °F    
Average Humidity 47    
Maximum Humidity 97    
Minimum Humidity 8    
Precipitation  
Precipitation 0.01 in - - ()
Sea Level Pressure  
Sea Level Pressure 29.70 in    
Wind  
Wind Speed 5 mph ()    
Max Wind Speed 16 mph    
Max Gust Speed 28 mph    
T = Trace of Precipitation, MM = Missing Value Source: Averaged Metar Reports

Daily Weather History Graph

Daily Weather History Graph

Search for Another Location

Airport or City:

Trip Planner

Search our weather history database for the weather conditions in past years. The results will help you decide how hot, cold, wet, or windy it might be!

Date:

Astronomy

Feb. 28, 2014 Rise Set
Actual Time 6:57 AM PST 5:53 PM PST
Civil Twilight 6:25 AM PST 6:26 PM PST
Nautical Twilight 5:47 AM PST 7:03 PM PST
Astronomical Twilight 5:10 AM PST 7:40 PM PST
Moon 6:16 AM PST (2/28) 5:39 PM PST (2/28)
Length of Visible Light 12h 00m
Length of Day
10h 56m
Waning Crescent, 0% of the Moon is Illuminated
Feb 28
Waning Crescent
Mar 1
New
Mar 8
First Quarter
Mar 16
Full
Mar 23
Last Quarter

Hourly Weather History & Observations

Time (PST) Temp. Windchill Dew Point Humidity Pressure Visibility Wind Dir Wind Speed Gust Speed Precip Events Conditions
12:00 AM 37.8 °F - 34.7 °F 89% 29.78 in - NNE 1.2 mph - N/A   Unknown
1:00 AM 38 °F - 36 °F 91% 29.78 in - Calm Calm - -  
1:00 AM 37.6 °F - 36.3 °F 95% 29.78 in - Calm Calm - N/A   Unknown
2:00 AM 36.1 °F - 35.1 °F 96% 29.78 in - NNW 1.2 mph - N/A   Unknown
3:00 AM 36.3 °F - 35.6 °F 97% 29.77 in - NE 2.3 mph - N/A   Unknown
4:00 AM 35 °F - 34 °F 95% 29.76 in - NE 2.3 mph - -  
4:00 AM 34.9 °F - 34.2 °F 97% 29.76 in - NE 2.3 mph - N/A   Unknown
5:00 AM 34.3 °F - 33.6 °F 97% 29.74 in - Calm Calm - N/A   Unknown
6:00 AM 35.2 °F 32.4 °F 33.8 °F 94% 29.73 in - NNE 3.5 mph - N/A   Unknown
7:00 AM 36 °F - 34 °F 88% 29.73 in - NNE 3.5 mph - -  
7:00 AM 35.6 °F 32.8 °F 33.8 °F 93% 29.73 in - NNE 3.5 mph - N/A   Unknown
8:00 AM 37.6 °F 35.1 °F 31.3 °F 78% 29.72 in - NNE 3.5 mph - N/A   Unknown
9:00 AM 48.7 °F - 24.8 °F 39% 29.71 in - NNW 10.4 mph 20.7 mph N/A   Unknown
10:00 AM 52 °F - 20 °F 17% 29.70 in - NNW 12.7 mph - -  
10:00 AM 51.6 °F - 22.1 °F 32% 29.70 in - NNW 12.7 mph 24.2 mph N/A   Unknown
11:00 AM 52.0 °F - 18.5 °F 27% 29.71 in - NW 16.1 mph 27.6 mph N/A   Unknown
12:00 PM 53.8 °F - 17.8 °F 24% 29.71 in - NW 13.8 mph 24.2 mph N/A   Unknown
1:00 PM 54 °F - 16 °F 12% 29.69 in - NW 13.8 mph - -  
1:00 PM 54.3 °F - 16.0 °F 22% 29.69 in - NW 13.8 mph 25.3 mph N/A   Unknown
2:00 PM 54.7 °F - 12.7 °F 19% 29.67 in - NNW 12.7 mph 27.6 mph N/A   Unknown
3:00 PM 54.5 °F - 9.3 °F 16% 29.65 in - NNW 10.4 mph 19.6 mph N/A   Unknown
4:00 PM 51 °F - 8 °F 8% 29.64 in - NW 10.4 mph - -  
4:00 PM 51.1 °F - 8.1 °F 18% 29.64 in - NW 10.4 mph 20.7 mph N/A   Unknown
5:00 PM 49.8 °F - 7.7 °F 18% 29.63 in - NW 12.7 mph 25.3 mph N/A   Unknown
6:00 PM 48.9 °F - 4.5 °F 16% 29.62 in - NW 13.8 mph 25.3 mph N/A   Unknown
7:00 PM 47 °F - 6 °F 9% 29.63 in - NNW 12.7 mph - -  
7:00 PM 46.9 °F - 7.7 °F 20% 29.63 in - NNW 12.7 mph 25.3 mph N/A   Unknown
8:00 PM 45.0 °F 40.1 °F 3.9 °F 18% 29.63 in - NNW 9.2 mph 20.7 mph N/A   Unknown
9:00 PM 43.2 °F 38.4 °F 2.8 °F 19% 29.65 in - NNW 8.1 mph 17.3 mph N/A   Unknown
10:00 PM 42 °F - 2 °F 8% 29.66 in - NNW 9.2 mph - -  
10:00 PM 41.5 °F 35.9 °F 1.6 °F 19% 29.66 in - NNW 9.2 mph 18.4 mph N/A   Unknown
11:00 PM 40.5 °F 32.8 °F -0.4 °F 18% 29.68 in - NNW 13.8 mph 25.3 mph N/A   Unknown